Theta_e
348 342 337 338 342 344 342 343 333 325 327 332 335 335 337 337 338 336 334 340 341 342 341 339 338 337 337 339 337 337 336 335 335 334 333 334 332 330 331 330 330 337 336
345 341 337 338 341 342 342 343 331 326 329 333 335 336 336 335 332 332 332 340 344 342 339 338 338 337 338 340 338 337 336 336 336 334 334 332 331 332 331 333 333 332 332
343 340 344 337 339 342 343 341 332 330 332 333 335 335 335 332 330 329 331 340 345 344 343 339 338 337 337 339 335 335 332 334 328 329 331 330 330 332 334 335 331 329 328
343 341 345 337 337 340 341 340 337 337 335 334 334 334 333 330 328 327 333 342 344 346 346 344 340 339 339 338 338 334 336 330 328 330 329 328 328 331 330 330 328 329 327
343 340 346 334 334 337 339 339 339 338 334 333 333 334 331 328 326 330 336 342 346 349 348 346 342 341 341 341 341 333 326 326 328 328 328 329 327 329 329 329 329 327 327
344 341 345 332 331 333 336 338 338 334 331 331 333 332 329 327 329 333 339 341 344 349 346 346 345 341 341 341 341 334 327 331 332 329 330 328 328 331 330 328 328 327 327
345 342 342 330 328 328 329 330 330 330 330 331 331 329 327 327 331 334 337 342 348 347 347 345 346 342 340 341 341 337 331 332 335 331 330 328 328 330 330 329 327 327 326
344 342 342 329 328 329 330 330 330 331 331 331 329 328 327 327 331 335 337 340 344 348 347 345 342 340 340 340 341 339 334 333 335 334 332 328 326 330 329 328 327 327 326
345 343 342 340 336 330 331 331 330 330 330 329 327 328 328 327 328 333 336 338 339 342 345 346 343 341 339 340 341 339 337 334 337 336 334 331 327 331 329 328 328 327 325
346 343 341 339 340 339 339 331 330 330 329 328 327 327 328 329 329 330 333 336 337 338 341 345 345 343 342 341 340 339 338 334 338 338 337 331 325 331 329 328 328 326 325
347 344 342 341 338 338 338 338 332 331 331 331 330 328 332 338 337 336 336 336 335 336 338 340 345 345 344 344 342 340 338 341 338 338 339 327 327 331 329 327 328 327 325
347 346 343 343 341 339 339 341 340 341 340 340 339 341 339 340 341 340 339 331 329 332 336 339 345 346 345 348 347 343 343 343 340 339 339 333 328 331 330 328 327 327 325
345 346 345 345 345 343 342 342 339 340 341 343 344 345 342 343 343 339 340 337 337 333 337 339 344 345 345 347 346 345 345 344 341 341 339 334 332 333 331 328 327 326 325
344 345 345 348 350 347 344 344 342 342 342 344 345 348 346 345 344 342 341 339 340 338 336 337 338 341 344 344 344 344 345 345 343 343 341 336 334 334 334 331 328 327 326
345 344 345 347 351 350 349 346 346 345 344 344 344 346 344 345 344 344 342 341 339 338 338 336 335 337 339 342 343 345 345 346 346 344 343 340 334 334 336 333 331 329 328
347 345 345 346 349 350 350 349 347 348 345 346 345 345 346 345 345 344 344 342 340 338 340 340 341 341 339 336 340 342 344 345 346 347 344 343 338 336 336 336 333 331 329
349 347 347 347 347 349 348 349 349 347 347 347 347 347 347 347 346 346 343 343 341 340 344 345 346 346 344 340 335 335 340 342 344 346 347 345 343 338 336 336 336 334 331
352 350 350 347 346 348 347 347 347 347 347 347 347 347 348 347 347 348 343 343 342 341 343 344 347 347 345 343 338 338 340 341 343 345 345 345 344 343 340 335 336 336 334
353 355 354 352 350 349 349 347 348 347 348 346 346 346 348 348 347 347 344 344 344 340 342 343 345 347 345 345 344 342 343 343 344 345 345 345 344 343 342 341 336 334 335
349 349 352 352 353 351 350 349 346 346 346 345 345 345 347 348 347 347 344 345 345 340 344 345 345 345 346 345 344 342 344 345 345 345 345 344 344 343 342 341 340 338 334
331 341 347 352 352 352 351 350 348 345 344 343 345 346 347 348 346 346 345 348 347 344 345 345 346 345 345 344 345 344 344 346 346 343 343 342 342 342 341 341 341 340 338
331 331 340 348 352 353 352 351 348 346 343 343 346 349 348 348 347 347 348 347 347 344 347 347 346 344 342 344 343 343 343 341 335 337 338 341 342 340 340 341 340 340 339
334 333 330 337 346 350 350 350 350 347 346 345 346 349 350 349 349 349 349 346 345 346 343 346 346 343 342 342 344 342 335 329 330 333 338 336 340 338 337 338 339 339 338
333 335 333 333 332 347 350 347 349 349 347 347 348 348 350 350 350 349 348 347 347 344 343 342 344 344 344 342 341 336 336 335 331 332 335 336 337 338 338 337 337 339 339
329 333 334 333 329 332 347 350 349 350 348 346 345 348 351 352 348 347 348 348 347 344 341 343 345 346 343 335 331 334 335 333 334 330 329 333 333 334 336 337 338 338 338
326 328 332 337 336 334 338 346 349 350 350 347 348 349 350 348 345 347 347 347 345 342 341 346 346 345 339 334 332 332 331 330 331 330 329 330 331 330 333 336 338 338 335
Wind_Speed
16 20 25 21 19 25 27 25 23 26 26 24 22 20 20 17 17 16 16 17 17 16 17 17 17 17 17 18 17 17 16 16 16 17 16 16 15 14 13 10 8 14 11
23 23 27 24 22 27 28 26 25 26 25 23 20 19 18 17 16 16 16 17 16 16 16 16 15 15 15 16 16 16 15 14 14 12 16 17 15 13 13 13 13 11 12
23 23 25 25 24 27 28 27 26 25 23 21 20 18 16 16 16 16 17 17 15 14 14 14 14 13 13 14 14 15 15 14 15 18 11 12 12 12 11 12 11 11 11
23 23 21 24 24 26 27 27 26 24 22 21 18 17 16 15 15 17 18 16 14 13 12 12 12 12 11 11 12 13 12 12 14 10 11 12 11 11 10 10 10 10 10
20 22 22 27 25 25 27 27 26 23 21 19 18 16 15 15 15 16 17 16 14 12 12 10 10 9 9 9 9 10 11 14 15 12 12 12 10 9 9 8 10 9 9
20 20 22 27 24 25 26 27 25 23 21 19 18 16 14 14 15 15 14 14 13 12 12 10 7 7 7 7 6 7 10 14 12 11 12 11 10 9 9 9 8 9 8
21 19 23 26 25 25 26 26 24 22 20 19 17 16 15 15 14 14 13 13 12 10 9 11 9 7 6 5 4 4 7 10 9 10 10 10 9 9 8 8 7 8 7
21 20 22 25 25 25 24 23 23 21 19 18 16 15 14 13 13 12 12 11 11 12 11 9 9 8 6 4 3 2 4 8 8 9 9 8 9 9 7 7 7 6 6
21 21 20 21 23 24 23 22 20 19 19 18 17 15 14 13 12 11 10 9 9 9 11 10 9 8 7 5 3 1 2 6 4 6 7 6 7 7 7 8 7 5 5
20 20 20 21 20 19 19 21 20 19 18 17 16 15 13 12 11 10 9 8 8 8 9 10 10 9 7 6 4 3 2 5 3 4 5 5 7 8 6 6 7 6 6
19 19 19 20 21 20 18 19 20 18 17 16 14 14 13 9 9 9 9 10 8 7 7 9 10 10 9 7 6 6 3 4 3 2 2 2 7 8 7 6 6 5 4
21 20 20 20 19 19 18 18 17 16 15 14 13 12 11 9 9 9 9 10 9 9 8 8 8 10 9 10 6 7 6 5 4 3 3 3 3 8 7 7 6 5 4
22 21 22 20 20 20 18 18 18 17 16 16 15 13 12 10 9 10 8 8 8 9 7 7 7 9 10 9 10 9 7 6 6 5 6 6 3 10 10 9 8 7 6
22 22 21 21 20 21 19 19 18 18 18 17 16 16 13 11 11 10 9 9 8 9 9 9 10 9 9 10 10 9 8 7 7 6 5 10 7 11 12 11 10 9 8
20 22 21 21 21 21 20 19 19 19 18 16 16 17 15 14 12 11 9 9 9 9 9 10 10 9 9 10 11 11 11 10 10 8 7 13 11 12 15 13 13 12 10
19 20 20 21 20 20 21 19 19 18 18 18 17 16 18 15 13 11 10 9 10 10 10 10 9 8 10 10 10 11 13 12 11 9 9 9 14 14 15 16 15 14 12
19 20 21 21 21 21 21 20 19 17 17 17 16 16 16 16 13 11 11 11 11 11 10 10 9 9 9 10 12 11 13 12 13 12 10 10 10 13 17 18 18 17 15
16 17 17 19 21 22 20 19 18 17 17 17 16 15 16 15 14 12 12 11 11 11 11 12 12 11 11 10 10 11 10 10 11 11 11 11 9 11 15 18 20 19 18
15 15 17 19 19 19 18 18 18 17 17 17 16 15 15 16 16 15 14 12 12 12 12 12 13 13 12 12 12 11 11 10 10 9 9 9 10 10 11 15 16 19 21
13 15 16 18 20 19 18 18 18 19 19 18 17 17 16 16 16 16 14 13 13 14 13 12 12 12 14 13 13 11 9 8 8 8 8 9 9 10 10 11 12 14 20
11 14 16 19 20 21 21 21 21 24 22 21 18 17 17 16 17 16 14 13 14 15 15 11 12 13 11 12 7 7 10 9 9 10 8 8 7 8 8 10 11 12 14
4 8 14 19 20 22 22 22 22 21 22 21 19 18 18 18 18 17 16 15 14 14 14 13 13 11 12 11 10 13 7 7 8 6 4 4 5 5 6 8 10 12 13
13 8 8 14 18 22 22 20 19 19 19 21 23 20 20 19 18 17 16 15 14 14 15 15 15 14 12 12 13 9 3 6 4 7 6 4 3 3 4 6 8 10 12
18 15 13 11 15 19 20 23 25 25 24 26 23 20 19 20 19 18 16 15 15 14 15 15 15 15 13 11 9 10 6 6 4 3 7 5 4 4 3 4 5 7 8
20 20 18 15 9 14 19 23 24 26 26 23 23 19 19 19 20 19 18 16 15 16 16 15 15 16 14 13 12 10 7 7 5 6 4 6 5 3 2 2 3 2 2
20 22 22 21 15 9 14 21 24 26 25 23 21 20 20 19 20 19 18 17 16 16 16 16 14 14 15 13 11 10 10 9 7 6 5 3 3 1 2 1 4 3 2
Wind_Direction
165 163 166 162 157 159 163 162 160 157 155 152 147 141 138 134 131 129 127 126 121 115 111 107 101 94 87 85 86 88 89 89 89 88 85 88 82 79 80 77 82 61 83
155 161 167 163 159 164 167 165 163 160 157 153 148 143 138 135 133 132 131 131 128 124 118 113 106 98 89 87 88 90 89 90 90 94 97 86 83 78 83 79 79 70 67
154 160 165 168 161 168 169 167 164 161 157 155 151 146 142 139 137 135 135 135 132 127 124 117 108 102 94 88 84 86 83 91 90 89 87 72 76 83 71 78 69 67 70
154 157 164 171 167 165 170 168 165 164 160 158 155 149 145 142 140 140 140 139 138 132 128 122 113 107 98 89 85 80 86 81 83 67 75 78 79 92 75 76 75 77 77
154 156 169 172 174 169 169 169 168 166 163 160 156 152 148 145 145 144 144 146 143 140 137 131 121 114 104 93 80 81 78 77 74 74 74 75 77 94 85 82 85 79 78
158 160 176 171 174 172 168 169 168 167 165 162 158 155 151 151 149 149 151 151 152 150 149 143 136 125 113 97 82 78 69 78 73 72 76 73 79 91 86 86 79 85 77
161 162 167 171 174 174 171 168 168 168 167 165 162 161 157 158 157 154 157 155 153 154 161 160 166 154 135 117 103 83 74 85 75 77 78 80 91 104 100 99 94 89 81
162 162 168 173 175 176 174 171 169 170 168 168 167 167 164 163 163 163 160 163 163 166 175 187 177 174 159 143 133 99 83 97 78 86 89 91 110 118 117 111 105 98 92
166 165 167 173 178 180 178 175 174 174 172 174 173 173 171 171 170 171 168 168 173 179 179 194 191 184 179 170 163 148 104 105 92 94 93 95 116 128 128 128 122 106 90
171 170 169 174 178 180 183 182 181 182 180 180 178 178 178 177 176 177 177 181 182 182 191 195 198 203 201 200 204 215 189 140 150 119 105 126 122 141 143 140 135 123 111
176 176 176 178 181 182 184 189 187 187 187 186 185 186 182 179 186 201 191 209 190 192 202 205 202 209 212 218 225 231 228 218 183 162 125 135 137 160 159 156 152 141 122
178 181 184 185 185 186 186 190 187 192 192 191 192 190 185 197 194 191 201 207 198 202 206 212 199 211 216 213 214 237 228 229 224 219 203 239 165 174 178 178 171 166 155
181 184 188 190 186 191 192 190 192 197 197 200 198 198 197 202 204 201 204 208 205 212 212 219 216 213 221 233 217 229 233 238 239 238 225 244 220 193 192 194 192 189 188
181 187 191 193 195 198 198 197 199 200 200 203 204 201 199 202 207 209 215 212 209 211 215 223 226 230 233 233 247 249 241 246 249 252 241 253 233 210 207 206 204 205 203
189 191 194 196 200 202 204 206 206 206 205 207 205 208 204 208 211 212 216 220 222 217 219 224 232 232 231 237 240 240 248 248 259 254 246 252 237 231 215 216 213 213 215
198 197 198 200 203 205 209 212 210 210 209 208 211 211 208 211 214 213 216 223 226 223 222 223 226 234 240 242 241 240 243 245 250 252 249 253 252 236 222 220 220 220 222
204 202 202 202 204 207 212 215 216 216 214 214 214 215 213 213 215 214 222 225 225 223 222 224 228 236 247 245 243 242 244 247 252 255 252 255 260 245 230 224 225 223 224
215 210 209 208 209 210 212 214 217 219 216 216 216 213 214 216 214 219 223 227 225 224 229 235 235 240 244 247 246 242 242 245 251 256 254 249 259 245 235 235 227 230 227
224 221 220 219 221 219 219 216 217 219 219 217 217 214 214 213 214 215 223 227 221 223 229 238 237 238 240 246 244 242 247 254 259 254 251 246 251 244 235 243 240 232 235
235 231 228 224 222 219 219 221 225 223 222 218 217 218 213 213 214 216 221 220 219 222 229 235 241 239 239 248 250 232 243 241 249 253 250 253 246 247 245 242 240 238 242
241 231 224 220 218 213 215 216 219 224 222 218 218 217 214 213 214 213 217 220 219 226 232 243 239 229 228 239 246 263 243 245 249 255 251 247 246 250 251 248 239 244 251
316 263 240 232 223 218 220 223 227 229 232 225 219 219 214 210 209 209 211 217 219 226 228 230 221 217 230 224 231 213 242 184 221 225 217 217 229 249 253 253 254 254 254
11 344 279 252 237 229 226 224 224 226 228 224 219 218 215 209 207 205 209 213 215 221 232 223 217 221 226 224 224 258 228 248 150 190 196 209 213 246 267 261 268 270 263
20 9 347 299 254 240 228 223 217 217 219 222 218 213 213 206 205 203 204 210 215 224 228 219 220 223 227 226 210 222 259 319 247 201 196 215 238 259 263 286 291 287 264
25 22 14 356 312 254 236 231 227 227 230 235 226 211 207 203 199 198 204 209 216 219 218 221 217 212 215 229 210 195 208 216 238 280 271 176 216 213 251 319 340 300 264
25 24 20 13 3 324 253 241 239 241 233 239 224 215 210 204 200 197 203 208 210 210 211 209 209 207 212 212 217 211 211 213 201 236 253 241 307 195 315 339 24 24 325